Weather History for South Lake Tahoe, CA

Change the Weather History Date:

Friday, April 12, 2013

  Actual Average Record
Temperature  
Mean Temperature 47 °F 40 °F  
Max Temperature 65 °F 53 °F 72 °F (1934)
Min Temperature 28 °F 26 °F 13 °F (2001)
Degree Days  
Heating Degree Days 18 26  
Month to date heating degree days 261 318  
Since 1 July heating degree days 6043 6470  
Cooling Degree Days 0 0  
Month to date cooling degree days 0 0  
Year to date cooling degree days 0 0  
Moisture  
Dew Point 29 °F    
Average Humidity 56    
Maximum Humidity 85    
Minimum Humidity 27    
Precipitation  
Precipitation 0.00 in - 0.54 in (1972)
Month to date precipitation 0.35  
Year to date precipitation 2.59  
Sea Level Pressure  
Sea Level Pressure 29.92 in    
Wind  
Wind Speed 3 mph (South)    
Max Wind Speed 12 mph    
Max Gust Speed 18 mph    
Visibility 10 miles    
Events      
T = Trace of Precipitation, MM = Missing Value Source: NWS Daily Summary

Daily Weather History Graph

Daily Weather History Graph

Search for Another Location

Airport:

Trip Planner

Search our weather history database for the weather conditions in past years. The results will help you decide how hot, cold, wet, or windy it might be!

Date:

Astronomy

Apr. 12, 2013 Rise Set
Actual Time 6:27 AM PDT 7:34 PM PDT
Civil Twilight 6:00 AM PDT 8:01 PM PDT
Nautical Twilight 5:27 AM PDT 8:34 PM PDT
Astronomical Twilight 4:53 AM PDT 9:08 PM PDT
Moon 7:41 AM PDT (4/12) 10:08 PM PDT (4/12)
Length of Visible Light 14h 01m
Length of Day
13h 07m
Waxing Crescent, 6% of the Moon is Illuminated
Apr 12
Waxing Crescent
Apr 18
First Quarter
Apr 25
Full
May 2
Last Quarter
May 9
New

Hourly Weather History & Observations

Time (PDT) Temp. Windchill Dew Point Humidity Pressure Visibility Wind Dir Wind Speed Gust Speed Precip Events Conditions
12:53 AM 34.0 °F 29.8 °F 27.0 °F 75% 29.94 in 10.0 mi South 4.6 mph - N/A   Clear
1:53 AM 33.1 °F 27.7 °F 26.1 °F 75% 29.92 in 10.0 mi South 5.8 mph - N/A   Clear
2:53 AM 30.9 °F - 25.0 °F 79% 29.93 in 10.0 mi Calm Calm - N/A   Clear
3:53 AM 30.0 °F 26.5 °F 25.0 °F 82% 29.94 in 10.0 mi South 3.5 mph - N/A   Clear
4:53 AM 28.9 °F - 24.1 °F 82% 29.93 in 10.0 mi Calm Calm - N/A   Clear
5:53 AM 28.9 °F - 24.1 °F 82% 29.94 in 10.0 mi Calm Calm - N/A   Clear
6:53 AM 28.0 °F 24.2 °F 23.0 °F 81% 29.99 in 10.0 mi South 3.5 mph - N/A   Clear
7:53 AM 34.0 °F - 26.1 °F 73% 29.99 in 10.0 mi Calm Calm - N/A   Clear
8:53 AM 45.0 °F - 28.9 °F 53% 29.97 in 10.0 mi Calm Calm - N/A   Clear
9:53 AM 50.0 °F - 26.1 °F 39% 29.96 in 10.0 mi Calm Calm - N/A   Clear
10:53 AM 53.1 °F - 26.1 °F 35% 29.95 in 10.0 mi Variable 4.6 mph - N/A   Clear
12:53 PM 57.0 °F - 28.9 °F 34% 29.92 in 10.0 mi Variable 6.9 mph - N/A   Clear
1:53 PM 57.9 °F - 28.0 °F 32% 29.92 in 10.0 mi Variable 4.6 mph - N/A   Clear
2:53 PM 61.0 °F - 27.0 °F 27% 29.90 in 10.0 mi NE 8.1 mph - N/A   Clear
3:53 PM 63.0 °F - 28.0 °F 27% 29.87 in 10.0 mi Variable 5.8 mph - N/A   Clear
4:53 PM 63.0 °F - 32.0 °F 31% 29.87 in 10.0 mi Variable 3.5 mph - N/A   Clear
5:53 PM 59.0 °F - 36.0 °F 42% 29.89 in 10.0 mi Variable 3.5 mph - N/A   Clear
6:53 PM 55.9 °F - 36.0 °F 47% 29.91 in 10.0 mi SSW 6.9 mph - N/A   Clear
7:53 PM 51.1 °F - 37.9 °F 61% 29.91 in 10.0 mi Calm Calm - N/A   Clear
8:53 PM 51.1 °F - 36.0 °F 56% 29.88 in 10.0 mi SSW 10.4 mph - N/A   Clear
9:53 PM 46.0 °F - 36.0 °F 68% 29.91 in 10.0 mi Calm Calm - N/A   Clear
10:53 PM 45.0 °F - 34.0 °F 65% 29.90 in 10.0 mi Calm Calm - N/A   Clear
11:53 PM 43.0 °F - 34.0 °F 71% 29.90 in 10.0 mi Calm Calm - N/A   Clear